Погода в Эд-Дали

Йемен     13°42′04″N   44°43′47″E
темп.,
°C
ветер,
м/с
пор.,
м/с
влажн.,
%
обл.,
%
осадки,
мм/ч
давл.,
гПа
погр.,
м
27 ноября, сб
сб2700:00+18с12780 0.0 1018114
03:00+18св11560 0.0 101712
06:00+17ссв22480 0.0 101812
09:00+22всв24320 0.0 10191188
12:00+26юв46240 0.0 10152326
15:00+24ю85425 0.0 1014988
18:00+21ю33550 0.0 1017651
21:00+19ю11620 0.0 1018171
28 ноября, вс
вс2800:00+19ссз22480 0.0 101722
03:00+18ссв33390 0.0 101724
06:00+17ссв43395 0.0 101935
09:00+22св46270 0.0 10191105
12:00+26всв68180 0.0 10152305
15:00+27вюв46195 0.0 10132389
18:00+21юв34495 0.0 1016465
21:00+19всв12485 0.0 1018100
29 ноября, пн
пн2900:00+18ссв33325 0.0 101841
03:00+18ссв46300 0.0 1017135
06:00+16ссв44305 0.0 101936
09:00+21св58235 0.0 10201165
12:00+25св89160 0.0 10162102
15:00+26всв56160 0.0 10132398
18:00+21вюв34420 0.0 1016304
21:00+19всв23440 0.0 1019144
30 ноября, вт
вт3000:00+18ссв48310 0.0 1018203
03:00+17ссв610345 0.0 1017267
06:00+15ссв33393 0.0 101932
09:00+19ссв24291 0.0 1019861
12:00+25всв451617 0.0 10152070
15:00+26вюв661432 0.0 10112293
18:00+20ююв44510 0.0 1015398
21:00+18всв16511 0.0 1017454
1 декабря, ср
ср100:00+17ссв33310 0.0 101759
03:00+15ссв33320 0.0 101624
06:00+14ссв33340 0.0 101725
09:00+19св23240 0.0 1017665
12:00+24вюв24140 0.0 10132040
15:00+25ююв55150 0.0 10101721
18:00+17ю44650 0.0 1015652
21:00+16ююз11730 0.0 1017280